Starlink 4388

operational
NORAD ID: 53651 Int'l Des: 2022-105 Owner: SPXS Country: US Constellation: starlink
LEOCIRCULARRETROGRADESSO

About Starlink 4388

Description loading...

Live Position

Loading 3D Globe...

Upcoming Passes

Altitude History

Altitude vs Time

uPlot chart will show altitude changes over time

Two-Line Element Set

1 53651U 22105D 25259.61008456 .00000124 00000-0 14221-4 0 9994
2 53651 97.6034 139.7931 0003857 56.5084 303.6509 15.01257666167116
Epoch: Sep 16, 2025 • Age: 23 hours

Current Status

Altitude 574.0 km
Velocity 7.57 km/s
Sub-Earth Point -22.92°S, 111.7°E
Launch Date Aug 31, 2022
Age 3 years
Type internet

Technical Details

Classification Payload
Mass 300.00 kg
Dry Mass 290.00 kg
Total Mass 300.00 kg
Length 0.20 m
Diameter 2.80 m
Span 9.00 m
Shape Box + pan
Manufacturer SPXS
Bus Type Starlink
Phase Status In Orbit
Owner/State SPXS/US

Large Constellations

Loading constellations...